Temp
28 28 27 27 27 26 26 26 25 25 25 25 25 25 25 26 25 25 24 24 25 24 24 23 21 20 19 20 19 18 18 17 16 14 15 15 14 15 15 14 14 14 15
27 27 27 27 27 27 26 26 25 25 25 25 25 25 25 25 25 25 24 24 24 24 24 23 21 20 20 19 19 19 18 17 16 14 14 14 14 15 15 14 14 14 14
27 27 27 27 27 27 27 26 25 25 24 24 25 25 24 24 24 24 24 24 24 23 23 23 22 20 20 19 20 19 18 17 17 15 14 14 14 14 14 14 14 14 13
27 27 27 27 27 27 26 26 25 25 25 25 24 24 24 23 24 24 24 23 23 23 23 23 23 22 20 20 19 19 18 17 17 15 14 13 14 13 14 14 13 14 13
27 27 27 26 26 25 25 25 25 24 24 23 23 23 23 23 23 22 22 23 22 23 23 23 23 23 22 21 19 18 18 17 16 14 13 13 13 13 14 14 14 14 13
27 26 25 24 24 24 24 24 23 23 23 23 22 22 22 22 21 22 21 22 22 22 22 22 22 21 20 20 19 20 20 18 16 14 13 14 13 14 13 14 14 13 13
25 23 23 23 23 22 22 21 22 22 22 21 21 20 20 20 20 20 21 21 21 21 21 21 21 20 19 19 19 19 19 18 20 19 17 15 15 15 15 14 14 14 14
22 21 22 22 21 21 22 21 21 21 21 21 19 19 19 19 20 20 20 20 20 20 19 19 19 19 19 19 19 19 18 17 18 18 19 18 17 16 16 16 16 14 14
20 21 21 22 21 21 21 21 20 20 20 19 18 18 18 17 18 20 20 19 19 19 19 18 18 18 18 18 19 18 17 17 17 17 17 18 17 17 16 15 15 14 13
21 21 21 21 21 20 20 20 19 20 19 18 18 17 17 17 17 19 19 19 19 18 18 19 18 18 18 18 18 18 17 17 16 16 16 17 17 17 16 16 16 14 14
20 20 20 20 20 20 20 19 19 19 18 18 18 17 17 16 16 17 16 17 17 17 18 18 17 17 16 17 17 17 17 16 17 16 16 16 16 16 15 15 15 15 14
20 19 19 19 19 19 19 19 18 18 18 18 17 16 15 15 16 16 15 16 15 17 17 17 17 16 17 17 16 15 16 16 16 15 15 15 15 15 15 15 15 15 15
19 19 19 18 18 18 18 18 17 17 17 16 16 15 14 15 15 16 16 15 15 16 16 17 18 17 17 16 16 16 16 16 15 15 15 15 15 16 15 15 15 14 14
19 18 18 18 17 17 17 17 16 16 15 14 13 13 14 14 14 15 15 15 15 15 16 16 17 17 16 16 16 16 15 16 17 16 16 16 15 15 15 15 15 14 14
18 18 17 16 16 16 15 14 15 14 14 12 12 13 12 12 11 13 14 16 15 15 16 16 16 15 15 16 16 16 15 14 17 16 16 17 16 16 15 15 14 14 14
17 17 16 15 14 14 13 13 13 13 13 12 12 12 11 11 12 13 15 14 16 16 15 15 15 15 15 15 15 15 16 15 16 16 17 16 16 16 16 15 14 14 14
16 16 15 15 14 13 13 12 11 11 11 11 10 10 10 11 11 13 14 13 15 15 14 13 13 14 15 15 14 15 16 16 15 15 16 16 16 16 15 15 14 14 13
16 15 15 15 15 14 13 13 12 11 11 10 10 10 10 10 10 11 13 13 12 11 11 11 11 11 12 13 14 14 15 15 15 16 15 15 16 15 14 15 14 14 14
15 15 15 15 14 14 13 12 11 10 10 9 8 8 9 9 9 10 11 8 8 8 8 9 9 10 11 11 12 13 14 15 15 15 16 15 15 15 15 16 16 15 14
15 16 16 14 13 12 11 11 9 8 7 7 6 5 7 7 7 7 7 7 7 8 8 8 8 8 9 9 10 11 12 14 14 14 14 15 15 15 14 16 15 15 15
13 12 13 13 11 10 9 8 7 7 6 6 6 5 5 5 5 5 6 6 6 6 6 6 7 7 8 8 8 9 10 11 13 14 14 14 15 15 15 14 15 16 16
13 12 11 10 9 8 7 7 6 6 6 5 5 5 5 5 4 5 5 5 5 6 6 6 6 6 6 7 7 7 8 9 10 11 12 14 14 14 15 15 14 16 14
12 11 9 8 7 6 6 6 6 5 5 4 4 4 4 4 4 5 4 5 5 5 5 5 6 6 6 6 7 7 7 7 7 8 9 11 13 14 14 14 14 14 14
11 10 8 7 7 6 6 5 5 5 4 4 4 4 4 4 4 4 4 4 5 5 5 5 5 5 6 6 6 6 7 6 6 7 8 9 11 13 15 14 14 14 14
11 10 9 8 7 6 6 5 4 4 4 4 4 4 4 4 4 4 4 4 4 4 4 5 5 5 5 5 5 4 4 5 7 6 7 8 10 11 13 14 14 14 14
11 10 9 9 7 7 6 5 4 4 4 3 4 4 4 3 3 3 3 4 4 4 4 4 4 4 4 4 5 4 4 5 6 7 7 8 9 11 12 14 14 14 14
Height
777 781 785 787 790 794 796 798 800 801 801 801 801 800 799 797 796 793 792 790 786 783 781 778 777 778 776 780 779 779 781 785 791 796 799 800 803 807 809 812 815 817 821
771 775 779 783 786 789 792 794 797 797 798 797 797 797 796 794 792 789 786 785 782 778 776 773 772 773 775 776 775 775 779 784 789 794 796 798 801 807 810 814 817 819 820
766 771 773 776 780 783 786 790 792 793 794 795 793 792 792 791 789 786 784 781 778 776 773 770 767 768 770 770 770 774 778 783 787 788 793 797 801 807 811 814 817 819 821
761 765 768 771 774 778 782 786 788 790 791 791 791 791 789 787 785 782 780 778 775 773 769 766 764 764 765 767 765 770 776 782 786 788 791 797 799 806 810 813 816 819 821
757 760 762 766 771 775 779 781 786 787 788 788 788 788 788 784 782 779 777 774 772 769 766 763 761 760 762 764 766 770 775 778 784 788 792 797 800 805 807 811 815 818 820
750 754 758 763 767 771 775 779 781 785 786 785 786 785 783 781 778 775 773 772 770 768 764 761 760 759 761 764 766 769 772 777 783 788 791 796 799 802 806 809 813 816 818
748 753 757 761 765 768 772 779 781 783 784 784 783 783 782 779 776 774 773 772 770 767 763 761 760 760 761 764 768 771 774 779 782 784 788 793 797 800 804 807 811 813 816
746 751 756 760 764 768 771 776 779 780 780 782 783 782 780 778 776 774 773 772 771 768 765 763 762 762 763 766 768 771 775 779 783 787 789 792 796 800 804 806 809 813 815
746 750 754 757 762 766 769 772 775 777 779 781 782 782 781 779 777 776 774 772 772 770 768 766 765 765 767 768 769 772 776 778 783 787 791 794 797 801 803 808 808 811 814
745 748 753 756 759 764 767 770 773 775 778 781 782 782 782 780 778 776 775 774 772 771 770 768 767 768 769 771 773 775 777 779 783 787 791 793 796 800 803 806 807 809 812
744 749 753 756 759 762 766 769 772 774 777 780 781 782 782 782 780 778 776 774 773 771 771 770 770 771 773 775 778 777 778 781 783 787 791 793 795 799 802 805 806 807 809
744 750 756 759 761 763 765 768 770 772 774 777 780 781 782 781 780 779 777 775 775 772 770 771 771 772 775 777 780 781 780 782 786 788 791 794 795 798 802 804 805 806 806
742 748 755 761 764 767 769 770 771 773 774 777 779 780 781 780 779 778 777 775 775 773 771 770 771 772 776 779 781 782 783 785 787 788 791 793 796 797 800 802 803 804 804
740 747 753 759 764 768 772 774 774 774 775 776 778 779 780 780 778 777 776 774 774 773 770 771 771 772 775 777 781 783 786 786 787 788 789 792 796 798 799 801 801 802 803
744 747 756 761 764 769 773 776 777 777 777 778 779 780 781 780 780 778 776 775 774 774 772 771 771 771 774 776 777 781 783 783 785 788 788 789 793 795 797 799 801 800 801
753 754 760 764 768 772 775 778 780 780 780 781 782 782 781 781 781 780 777 775 774 774 772 774 773 772 772 774 775 776 778 777 780 780 781 784 787 790 792 796 798 799 799
758 758 765 768 768 775 779 779 781 784 783 784 784 783 782 780 779 778 776 776 775 775 774 774 775 773 772 772 772 774 775 775 778 781 784 785 784 784 786 790 794 797 797
756 762 771 766 764 774 779 781 782 784 784 785 784 784 781 779 778 778 773 774 776 778 778 774 774 774 773 773 772 772 773 774 775 778 780 783 784 782 782 784 790 793 796
746 764 770 766 765 771 780 780 781 782 783 782 784 783 783 777 780 779 775 774 775 781 781 779 775 774 774 773 772 771 771 771 772 774 775 780 779 781 780 779 785 789 793
756 769 768 767 768 775 779 778 779 782 782 781 783 784 782 778 780 781 780 779 777 775 783 782 778 775 773 772 771 770 768 767 768 769 771 774 775 776 778 777 780 785 789
756 765 767 765 771 774 777 782 778 782 781 783 785 785 784 779 782 782 780 781 781 778 779 780 780 777 771 770 769 768 767 766 764 765 765 766 768 770 772 776 776 779 784
755 763 767 769 773 776 777 777 778 778 781 783 785 785 782 780 784 783 783 782 780 780 777 777 777 776 771 768 767 766 764 763 763 761 760 760 762 763 766 769 772 774 777
756 761 767 770 773 776 778 776 779 779 779 783 785 782 780 783 784 783 784 777 782 779 777 774 774 773 770 768 766 762 761 762 762 760 759 757 757 757 759 760 764 770 772
756 762 767 769 772 776 778 778 780 780 780 786 785 782 782 781 784 783 782 780 777 778 775 771 770 770 767 766 764 761 759 758 758 757 755 753 752 752 751 754 757 762 766
758 763 766 769 773 776 778 781 784 785 781 782 784 783 782 783 784 785 782 780 778 777 772 770 769 768 765 763 761 758 758 755 751 751 749 748 746 746 747 747 751 754 757
762 766 768 769 773 777 781 783 783 783 784 784 784 786 784 781 785 787 783 780 779 774 770 768 766 765 762 759 756 753 751 747 746 744 741 740 739 739 740 741 742 744 747
Wind_Speed
34 33 32 30 29 26 24 21 18 16 15 15 14 14 15 16 15 18 21 23 24 25 21 20 23 16 21 22 23 22 12 8 4 3 8 8 14 13 10 10 11 9 6
33 31 31 29 29 27 25 21 17 16 14 13 12 13 14 15 16 18 20 19 20 21 21 20 18 19 20 23 17 20 10 10 7 8 9 11 13 13 10 10 10 10 7
30 28 28 29 27 27 24 20 16 14 13 11 12 13 15 15 15 16 19 22 22 22 22 22 22 15 19 14 11 17 10 12 9 11 9 12 14 14 11 10 10 11 8
28 25 26 28 27 24 21 17 15 12 12 13 12 13 13 14 17 20 21 22 23 22 20 20 18 15 16 14 14 15 12 14 10 15 11 12 12 13 11 11 10 9 9
28 27 27 25 22 20 19 16 13 11 9 7 9 11 15 18 20 20 20 20 19 18 18 17 15 11 10 13 11 16 16 17 16 14 10 11 10 12 15 11 9 9 8
27 25 21 18 18 21 18 15 13 7 5 6 8 11 15 16 16 15 17 14 13 15 15 13 9 8 8 6 11 15 16 22 19 12 9 14 12 13 13 14 10 6 3
22 18 16 18 20 19 16 12 9 6 2 2 6 9 10 11 12 9 8 10 12 13 13 11 7 4 3 10 12 13 13 17 9 17 20 18 20 21 20 16 13 9 6
18 18 19 20 20 17 15 13 11 7 4 4 7 8 8 12 8 8 8 11 12 12 12 9 5 1 6 11 13 13 13 14 14 13 11 12 15 18 20 17 15 10 6
24 23 23 23 22 20 18 15 12 10 9 10 10 10 13 16 15 10 10 12 12 14 15 13 5 2 6 7 12 13 11 10 11 11 7 8 10 9 16 14 11 12 5
25 25 23 23 22 20 17 15 15 12 12 12 11 12 15 17 17 13 12 12 14 15 13 11 6 1 7 6 8 9 10 7 7 13 13 11 11 9 13 12 11 10 5
25 24 22 21 20 19 19 18 17 15 14 13 11 11 12 15 16 15 15 13 13 11 12 12 6 2 5 6 4 8 6 10 10 12 16 14 14 12 12 10 8 9 7
26 24 21 20 21 21 20 18 17 16 17 14 11 9 9 12 14 15 16 14 10 7 7 7 5 4 9 9 8 8 9 12 13 15 16 14 15 12 10 9 6 6 7
29 27 23 21 21 19 19 19 18 15 16 13 9 9 9 12 13 12 13 15 14 6 6 2 3 9 10 8 7 5 10 11 13 13 12 12 10 10 9 8 6 5 5
31 28 25 25 22 19 18 17 18 17 16 13 10 8 8 10 13 14 16 14 15 9 3 3 5 10 12 8 8 10 9 9 11 12 12 10 8 10 10 9 6 4 3
28 28 25 24 23 21 18 14 13 12 10 11 10 10 10 12 13 14 15 12 13 11 6 4 2 10 14 14 12 13 10 11 12 12 14 13 10 10 9 10 8 8 4
24 24 22 22 20 20 20 20 17 16 14 14 12 10 11 10 8 8 8 8 9 9 9 8 5 1 8 15 17 15 17 19 19 20 19 16 13 10 11 12 11 9 4
18 19 21 24 20 17 16 18 17 13 11 10 10 11 11 10 7 5 5 7 8 7 12 12 12 12 5 5 13 20 21 23 20 18 19 17 13 10 15 13 12 9 6
19 17 21 24 23 18 13 12 10 8 7 6 6 10 12 11 9 7 6 4 10 14 14 13 13 13 12 9 7 13 20 21 20 20 18 17 14 11 17 17 13 12 9
25 18 16 16 20 17 13 11 9 8 8 7 4 8 12 11 9 11 11 14 13 13 14 14 13 13 12 11 11 8 13 19 22 21 20 20 16 12 16 16 16 17 13
23 21 22 22 19 16 12 11 10 8 8 8 7 9 11 10 11 13 13 10 10 11 14 14 14 13 12 13 13 11 9 13 16 19 23 21 17 15 16 16 17 20 21
30 26 23 21 19 15 10 8 11 8 8 7 6 8 11 10 9 9 10 9 10 10 10 13 15 15 14 14 13 13 12 10 9 18 17 20 24 23 21 19 20 20 21
29 24 20 17 15 13 13 11 10 11 9 7 6 6 9 11 9 10 10 10 10 10 9 10 13 14 14 15 16 14 14 15 13 12 9 16 22 24 27 24 19 22 22
24 21 19 18 15 13 11 11 11 10 11 7 6 8 12 13 11 12 11 11 12 10 9 10 11 13 15 15 16 15 15 15 15 16 16 15 12 25 25 25 22 22 27
23 22 19 17 16 14 11 11 10 11 10 6 7 11 11 11 10 10 10 11 11 11 11 12 13 13 13 14 15 13 15 17 18 19 17 17 17 14 24 25 27 29 28
24 23 21 19 16 14 12 9 7 7 11 10 10 10 10 9 10 10 10 10 11 12 12 12 13 14 16 17 16 16 17 18 21 22 21 21 19 17 18 27 27 28 28
25 23 21 19 16 13 11 9 8 8 9 10 8 7 8 10 10 10 11 13 14 16 16 17 17 17 18 19 21 22 24 25 24 22 21 22 23 21 16 25 28 27 27
Wind_Direction
234 238 240 244 246 248 250 255 262 269 274 274 280 282 286 291 293 293 296 303 304 301 292 290 259 236 241 245 257 242 243 212 130 132 180 177 167 163 158 172 166 183 167
235 239 243 246 247 247 248 251 255 263 271 277 278 282 285 286 292 295 301 312 312 312 309 301 281 241 246 244 256 240 226 202 158 154 175 173 162 168 157 147 162 178 176
230 236 242 245 245 244 243 244 249 259 269 273 274 278 288 291 296 302 306 308 307 311 311 305 305 268 246 243 250 231 206 193 181 163 161 170 161 171 154 157 161 172 163
228 233 239 242 243 240 234 230 240 247 257 266 281 290 295 302 305 306 306 308 310 312 308 305 300 277 259 243 229 199 187 179 173 162 153 154 159 176 171 166 165 182 176
228 234 242 244 240 230 218 215 226 236 243 276 297 300 305 309 310 316 311 308 310 309 311 310 298 279 260 253 218 185 182 171 161 156 148 158 156 172 182 182 176 182 192
219 223 227 226 217 204 197 193 210 213 251 288 301 314 319 325 318 305 306 317 327 324 327 324 309 283 269 238 189 189 193 180 166 155 168 171 173 183 183 177 171 163 195
202 204 202 196 186 178 180 164 175 180 188 347 348 349 358 344 347 346 353 345 337 331 332 325 322 307 217 175 176 186 191 201 205 187 180 183 189 194 191 179 193 188 194
171 168 169 166 158 157 160 162 156 149 107 56 33 30 36 25 2 13 10 5 2 7 5 357 339 318 167 166 173 180 183 197 203 201 202 190 206 202 208 201 196 198 199
154 157 160 160 158 158 156 153 144 130 110 85 64 63 57 44 42 34 37 52 31 18 14 7 2 137 153 167 161 166 166 191 206 205 192 198 198 207 215 211 198 188 215
160 161 161 162 158 156 153 149 141 127 115 102 86 70 64 53 44 45 47 43 33 27 11 1 16 290 166 160 160 154 142 141 171 189 176 167 183 206 203 212 201 184 193
161 158 159 159 156 153 145 143 141 131 124 112 98 79 64 52 45 37 38 36 27 24 22 2 344 224 165 135 132 128 125 147 144 159 168 158 157 170 184 200 214 226 244
159 155 153 153 150 147 143 137 136 135 129 127 119 90 57 43 35 32 31 30 16 23 16 7 9 130 146 140 150 126 145 153 148 145 153 159 159 170 189 205 215 233 254
156 153 149 151 146 143 138 135 131 131 122 116 107 80 46 26 17 17 23 24 13 5 0 349 135 152 155 156 164 156 167 168 165 166 167 176 189 184 200 206 227 234 255
153 151 151 150 142 136 128 123 118 119 116 107 94 75 43 21 12 10 9 13 3 5 17 11 186 181 182 181 196 189 201 185 170 169 163 163 181 190 203 211 222 206 241
154 151 150 147 140 129 121 108 108 104 104 110 100 79 38 23 17 6 360 12 10 9 13 45 80 191 201 206 200 194 201 202 185 178 167 165 183 203 222 215 212 189 226
158 154 153 147 136 128 122 109 101 97 94 88 81 61 50 29 16 12 20 32 11 17 48 29 23 305 223 219 211 202 203 209 208 205 197 190 195 206 220 213 216 214 213
151 149 156 156 143 138 137 129 123 116 102 89 65 48 36 27 28 15 30 27 19 30 53 43 33 24 342 253 227 220 222 223 221 224 223 222 213 212 193 203 208 230 226
135 143 162 155 147 148 150 142 142 141 128 96 56 36 34 30 30 26 52 27 33 29 32 37 27 20 19 2 277 241 239 244 237 235 232 233 233 219 188 193 216 217 222
128 147 159 153 152 146 156 145 138 128 119 100 48 24 32 47 36 30 46 55 43 14 9 10 13 10 8 3 9 317 267 254 249 239 235 245 235 230 211 196 220 223 223
149 168 165 156 148 155 160 151 139 131 110 92 65 23 24 43 35 31 32 29 32 31 3 354 354 359 1 359 353 347 351 277 264 250 239 234 240 234 242 219 215 219 227
166 164 158 146 155 158 154 154 136 125 105 87 69 31 30 56 35 27 30 21 13 9 2 354 349 349 351 352 349 346 340 321 319 283 264 245 241 237 235 245 228 224 225
153 152 151 149 150 146 142 130 123 110 94 81 67 52 38 49 34 34 28 23 18 5 1 351 344 344 345 340 336 336 333 330 326 313 317 270 253 243 236 233 235 222 219
147 145 142 138 136 129 126 119 114 106 83 63 49 55 53 46 38 29 16 23 4 1 359 358 342 333 332 330 323 321 322 320 314 310 307 291 281 233 227 223 220 213 210
144 141 136 133 130 128 117 108 95 88 93 85 70 58 54 50 29 20 10 5 14 10 11 11 0 349 344 341 337 331 314 306 303 299 295 292 281 272 230 220 213 214 211
133 130 128 125 121 114 109 97 96 101 92 83 71 55 48 39 25 15 17 13 13 4 5 360 352 346 345 342 342 338 330 323 310 303 289 280 277 263 243 224 213 206 206
128 124 119 118 115 115 118 127 124 97 76 61 56 51 41 33 19 8 11 8 3 5 2 358 352 347 343 341 336 332 330 324 318 304 289 272 265 263 254 230 221 207 201